Hourly Weather Roundup
Issued by NWS Central Illinois

Home | Current Version | Previous Version | Text Only | Print | Product List | Glossary On
Versions: 1 2 3 4 5 6 7 8 9 10 11 12 13 14 15 16 17 18 19 20 21 22 23 24 25 26 27 28 29 30 31 32 33 34 35 36 37 38 39 40 41 42 43 44 45 46 47 48 49 50
000
NZUS43 KILX 270810
HWRILX

AREA WEATHER ROUNDUP
NATIONAL WEATHER SERVICE, LINCOLN IL
300 AM CDT SAT AUG 27 2016


CITY           SKY/WX    TMP DP  RH WIND       PRES   REMARKS
BLOOMINGTON    CLOUDY    70  70 100 E5        30.07F FOG
CHAMPAIGN      CLOUDY    73  70  90 S22G30    30.08R
DANVILLE       PTCLDY    70  70  99 CALM      30.04F
DECATUR        LGT RAIN  74  71  91 S10       30.06S
EFFINGHAM      MOCLDY    73  73 100 CALM      30.08F
FLORA          CLOUDY    73  71  93 SE6       30.06F
GALESBURG      CLOUDY    70  69  98 CALM      30.05R
JACKSONVILLE   CLOUDY    74  72  95 CALM      30.03S
LACON          CLOUDY    70  68  96 W3        30.08R
LAWRENCEVILLE  CLOUDY    75  71  87 W3        30.06F
LITCHFIELD     CLOUDY    72  69  90 S3        30.06S FOG
$$


CITY           SKY/WX    TMP DP  RH WIND       PRES   REMARKS
LINCOLN        CLOUDY    71  71  99 CALM      30.05S
MACOMB         CLOUDY    70  70  99 SE10      30.05F
MATTOON        LGT RAIN  72  70  93 SE3       30.07F
MT CARMEL AP   CLOUDY    73  69  88 NW5       30.04F
OLNEY-NOBLE AP CLOUDY    72  72 100 CALM      30.07F
PARIS          CLOUDY    70  70 100 S3        30.08S THUNDER
PEORIA         LGT RAIN  71  71 100 NE3       30.05F
PONTIAC        CLOUDY    70  70  99 E3        30.06F
RANTOUL        MOCLDY    73  71  95 CALM      30.06F
ROBINSON       CLOUDY    73  72  95 W6        30.09F
SPRINGFIELD    CLOUDY    76  72  87 S8        30.05F
TAYLORVILLE    CLOUDY    72  71  98 S6        30.05F
$$

...REGIONAL REPORTS...


CITY           SKY/WX    TMP DP  RH WIND       PRES   REMARKS
CHICAGO O`HARE LGT RAIN  69  64  84 E8        30.08F
KANKAKEE       CLOUDY    68  67  96 E3        30.07F
MOLINE         CLOUDY    69  67  93 E7        30.02F
MOUNT STERLING LGT RAIN  70  70  99 CALM      30.04R
MOUNT VERNON   CLOUDY    72  64  78 CALM      30.05F
PITTSFIELD     CLOUDY    73  73  98 CALM      30.04F
QUINCY         CLOUDY    71  71 100 CALM      30.02F
ROCKFORD       LGT RAIN  65  62  90 E5        30.08F
$$


CITY           SKY/WX    TMP DP  RH WIND       PRES   REMARKS
BURLINGTON     LGT RAIN  71  71 100 SE8       30.03S FOG
CEDAR RAPIDS   LGT RAIN  64  64 100 N8        30.03F FOG
DES MOINES     CLOUDY    65  62  90 NE5       30.00S
KIRKSVILLE     PTCLDY    66  65  96 S8        30.02S
OTTUMWA        CLOUDY    67  65  93 E9        29.99F
ST LOUIS       CLOUDY    79  71  76 SE7       30.06S HX  82
$$


CITY           SKY/WX    TMP DP  RH WIND       PRES   REMARKS
TERRE HAUTE    MOCLDY    73  69  87 SW7       30.08S
EVANSVILLE     CLOUDY    73  71  93 CALM      30.05F
INDIANAPOLIS   CLOUDY    71  69  93 SE5       30.08F
LAFAYETTE      PTCLDY    71  70  96 E3        30.06F
MADISON        LGT RAIN  65  60  84 SE7       30.13R
MILWAUKEE      TSTM      68  62  81 NE6       30.10F
$$






USA.gov is the U.S. government's official web portal to all federal, state and local government web resources and services.